Weather History for KJLN - June, 2014

Change the Weather History Date:

Wednesday, June 4, 2014

  Actual Average Record
Temperature  
Mean Temperature 80 °F 72 °F  
Max Temperature 87 °F 83 °F 92 °F (1953)
Min Temperature 73 °F 62 °F 47 °F (2003)
Degree Days  
Heating Degree Days 0 0  
Month to date heating degree days 0 2  
Since 1 June heating degree days 0 2  
Since 1 July heating degree days 4881 4071  
Cooling Degree Days 15 8  
Month to date cooling degree days 48 29  
Year to date cooling degree days 261 209  
Since 1 June cooling degree days 48 29  
Growing Degree Days 30 (Base 50)    
Moisture  
Dew Point 71 °F    
Average Humidity 75    
Maximum Humidity 88    
Minimum Humidity 61    
Precipitation  
Precipitation T in 0.21 in 1.94 in (1985)
Month to date precipitation 0.98 0.82  
Year to date precipitation 9.73 18.77  
Sea Level Pressure  
Sea Level Pressure 29.78 in    
Wind  
Wind Speed 12 mph (SSW)    
Max Wind Speed 37 mph    
Max Gust Speed 46 mph    
Visibility 10 miles    
Events Rain , Thunderstorm    
T = Trace of Precipitation, MM = Missing Value Source: NWS Daily Summary

Daily Weather History Graph

Daily Weather History Graph

Search for Another Location

Airport or City:

Trip Planner

Search our weather history database for the weather conditions in past years. The results will help you decide how hot, cold, wet, or windy it might be!

Date:

Astronomy

Jun. 04, 2014 Rise Set
Actual Time 5:58 AM CDT 8:34 PM CDT
Civil Twilight 5:28 AM CDT 9:04 PM CDT
Nautical Twilight 4:50 AM CDT 9:42 PM CDT
Astronomical Twilight 4:07 AM CDT 10:25 PM CDT
Moon 12:12 PM CDT (6/4) 12:39 AM CDT (6/4)
Length of Visible Light 15h 36m
Length of Day
14h 35m
Waxing Crescent, 39% of the Moon is Illuminated
Jun 4
Waxing Crescent
Jun 5
First Quarter
Jun 12
Full
Jun 19
Last Quarter
Jun 27
New

Hourly Weather History & Observations

Time (CDT) Temp. Heat Index Dew Point Humidity Pressure Visibility Wind Dir Wind Speed Gust Speed Precip Events Conditions
12:53 AM 75.2 °F - 69.8 °F 83% 29.84 in 10.0 mi South 12.7 mph - N/A   Clear
1:53 AM 75.0 °F - 69.1 °F 82% 29.81 in 10.0 mi South 13.8 mph - N/A   Clear
2:53 AM 75.0 °F - 69.1 °F 82% 29.79 in 10.0 mi SSW 15.0 mph 25.3 mph N/A   Clear
3:53 AM 75.0 °F - 68.0 °F 79% 29.71 in 10.0 mi South 26.5 mph 35.7 mph 0.00 in Rain Light Rain
4:53 AM 75.9 °F - 68.0 °F 76% 29.76 in 10.0 mi SW 16.1 mph 29.9 mph 0.00 in   Clear
5:03 AM 75.9 °F - 68.0 °F 76% 29.88 in 10.0 mi North 16.1 mph 28.8 mph N/A   Partly Cloudy
5:53 AM 75.9 °F - 68.0 °F 76% 29.81 in 10.0 mi Variable 5.8 mph - 0.00 in Rain Light Rain
6:53 AM 75.0 °F - 68.0 °F 79% 29.86 in 10.0 mi Calm Calm - 0.00 in Rain Light Rain
7:16 AM 73.0 °F - 69.1 °F 87% 29.84 in 10.0 mi South 12.7 mph - 0.00 in Rain , Thunderstorm Light Rain
7:53 AM 73.9 °F - 69.1 °F 85% 29.83 in 10.0 mi North - - 0.00 in Rain Light Rain
8:53 AM 77.0 °F - 70.0 °F 79% 29.81 in 10.0 mi South 12.7 mph - 0.00 in   Clear
9:53 AM 80.6 °F 83.9 °F 69.8 °F 70% 29.81 in 10.0 mi SSW 19.6 mph 25.3 mph N/A   Clear
10:53 AM 82.9 °F 87.5 °F 71.1 °F 67% 29.77 in 10.0 mi SSW 21.9 mph 29.9 mph N/A   Scattered Clouds
11:53 AM 84.9 °F 90.7 °F 72.0 °F 65% 29.76 in 10.0 mi SSW 16.1 mph - N/A   Scattered Clouds
12:53 PM 86.0 °F 92.2 °F 72.0 °F 63% 29.76 in 10.0 mi SW 16.1 mph 24.2 mph N/A   Mostly Cloudy
1:53 PM 86.0 °F 93.0 °F 73.0 °F 65% 29.76 in 10.0 mi SW 11.5 mph - N/A   Mostly Cloudy
2:53 PM 84.9 °F 90.7 °F 72.0 °F 65% 29.75 in 10.0 mi SW 15.0 mph 20.7 mph N/A   Mostly Cloudy
3:53 PM 86.0 °F 93.0 °F 73.0 °F 65% 29.75 in 10.0 mi SSW 12.7 mph - N/A   Overcast
4:53 PM 84.0 °F 89.6 °F 72.0 °F 67% 29.75 in 10.0 mi WSW 6.9 mph - N/A   Overcast
5:53 PM 86.0 °F 93.0 °F 73.0 °F 65% 29.74 in 10.0 mi SSW 10.4 mph - N/A   Overcast
6:53 PM 84.0 °F 90.2 °F 73.0 °F 69% 29.74 in 10.0 mi South 9.2 mph - N/A   Scattered Clouds
7:53 PM 82.0 °F 87.4 °F 73.0 °F 74% 29.75 in 10.0 mi South 8.1 mph - N/A   Clear
8:53 PM 80.1 °F 83.8 °F 72.0 °F 76% 29.75 in 10.0 mi South 6.9 mph - N/A   Clear
9:44 PM 80.1 °F 83.8 °F 72.0 °F 76% 29.77 in 10.0 mi SSW 6.9 mph - N/A Thunderstorm Clear
9:53 PM 80.6 °F 84.6 °F 71.6 °F 74% 29.76 in 10.0 mi SSW 10.4 mph - N/A Thunderstorm Clear
10:23 PM 80.1 °F 84.2 °F 73.0 °F 79% 29.77 in 10.0 mi SSW 8.1 mph - N/A Thunderstorm Thunderstorm
10:38 PM 79.0 °F - 73.0 °F 82% 29.78 in 10.0 mi North 6.9 mph - N/A Thunderstorm Overcast
10:50 PM 78.8 °F - 73.4 °F 83% 29.79 in 10.0 mi NNW 12.7 mph - N/A Thunderstorm Thunderstorm
10:53 PM 79.0 °F - 73.9 °F 84% 29.76 in 10.0 mi NNW 8.1 mph - N/A Thunderstorm Thunderstorm
11:10 PM 80.1 °F 84.2 °F 73.0 °F 79% 29.79 in 10.0 mi NNW 3.5 mph - N/A Thunderstorm Overcast
11:53 PM 77.0 °F - 73.0 °F 88% 29.78 in 10.0 mi NNE 4.6 mph - 0.00 in Thunderstorm Overcast